SL-19 DEB, 23491

Orbit data source: Space-Track

SL-19 DEB, 23491 is space debris in LEO originally from a launch on Mon, 26 Dec 1994 UTC launched from the Tyuratam Missile And Space Complex (TTMTR). Debris objects in space refer to the collection of defunct objects orbiting the Earth. Examples of debris include non-operational satellites, rocket bodies, and fragments generated from explosions, collisions, or faulty payload assembly.

Loading next visibility...
Identifier
23491, 1994-085P
Orbit
LEO
Country
Flag of CISCIS
Related business
Manufacturer
Unknown
Mission
Spacecraft
Bus & Motor
Unknown
Mass
Unknown
Launch date (UTC)
1994-12-26 (31 years ago)
Launch vehicle
Unknown
Launch site
Tyuratam Missile And Space Complex (TTMTR)
Object type
Payload
Rocket body
Debris
Shape & HBR
Unknown shape, 0.2 m
Radar Cross Section
Medium (>0.1 m² and <1 m²)

Expand to show TLE details & history
Last TLE update: 11 hours ago

TLE from 11 hours ago
0 SL-19 DEB
1 23491U 94085P   26062.47134169  .00000384  00000-0  10156-1 0  9995
2 23491  64.8249 222.5577 0300100 259.3781 127.2606 11.36629093291425
Epoch: 2026-03-03T11:18Z
TLE epoch observation values (Epoch: 2026-03-03T11:18:43.922Z)
Latitude
26.34505°
Longitude
-94.97762°
Altitude
2,136.202 km
Speed
6.781 km/s
True Right ascension
15h 43m 49s
True Declination
26° 13' 50"
Sunlit
Object was in daylight at epoch
Visualization orbit readout
Latitude
Unknown
Longitude
Unknown
Altitude
Unknown
Speed
Unknown
Apparent Right ascension
Unknown
Apparent Declination
Unknown
Sunlit
N/A
Visualization observer readout
Local Sidereal Time
02:02:25
Azimuth
Unknown
Elevation
Unknown
Doppler factor
Unknown
Orbital elements
Apogee altitude
2,227.209 km
Perigee altitude
1,725.765 km
Semi-major axis
8,354.624 km
Eccentricity
0.03001
Inclination
64.8249°
RAAN
222.5577°
Arg. of periapsis
259.3781°
True anomaly
129.93578°
Mean anomaly
127.2606°
Eccentric anomaly
128.6043°
Mean motion
2.84219 °/min
Orbital period
126.66 mins
BSTAR
0.010156
Loading maneuver chart data...
Computing Atmospheric mass density...
Loading historical data...
Loading historical data...
Loading historical data...
Loading historical data...
Loading historical data...
Loading historical data...
Loading historical data...

Documentation

Showing up to 5 results
|